TimeMDT,TemperatureF,Dew PointF,Humidity,Sea Level PressureIn,VisibilityMPH,Wind Direction,Wind SpeedMPH,Gust SpeedMPH,PrecipitationIn,Events,Conditions,WindDirDegrees,DateUTC
12:35 AM,50.0,28.4,43,30.13,10.0,NW,11.5,-,N/A,,Clear,320,2012-10-13 06:35:00
12:55 AM,48.2,28.4,46,30.14,10.0,NW,12.7,-,N/A,,Clear,320,2012-10-13 06:55:00
1:15 AM,48.2,28.4,46,30.14,10.0,NNW,13.8,-,N/A,,Clear,330,2012-10-13 07:15:00
1:35 AM,48.2,28.4,46,30.14,10.0,NW,12.7,-,N/A,,Clear,320,2012-10-13 07:35:00
1:55 AM,46.4,28.4,50,30.14,10.0,NW,12.7,-,N/A,,Clear,320,2012-10-13 07:55:00
2:15 AM,48.2,30.2,50,30.15,10.0,NW,13.8,-,N/A,,Clear,310,2012-10-13 08:15:00
2:35 AM,46.4,30.2,53,30.16,10.0,NW,13.8,-,N/A,,Clear,320,2012-10-13 08:35:00
2:55 AM,46.4,28.4,50,30.17,10.0,NW,13.8,-,N/A,,Clear,310,2012-10-13 08:55:00
3:15 AM,46.4,30.2,53,30.17,10.0,WNW,12.7,-,N/A,,Clear,300,2012-10-13 09:15:00
3:35 AM,44.6,30.2,57,30.17,10.0,NW,10.4,-,N/A,,Clear,320,2012-10-13 09:35:00
4:35 AM,44.6,30.2,57,30.17,10.0,NW,10.4,-,N/A,,Clear,310,2012-10-13 10:35:00
4:55 AM,44.6,32.0,61,30.17,10.0,NW,12.7,-,N/A,,Clear,310,2012-10-13 10:55:00
5:15 AM,42.8,30.2,61,30.18,10.0,NW,11.5,-,N/A,,Clear,310,2012-10-13 11:15:00
5:35 AM,41.0,30.2,65,30.18,10.0,NW,12.7,-,N/A,,Clear,310,2012-10-13 11:35:00
5:55 AM,41.0,30.2,65,30.18,10.0,WNW,12.7,-,N/A,,Clear,300,2012-10-13 11:55:00
6:15 AM,41.0,30.2,65,30.19,10.0,NW,9.2,-,N/A,,Clear,310,2012-10-13 12:15:00
6:35 AM,41.0,30.2,65,30.19,10.0,WNW,11.5,-,N/A,,Clear,300,2012-10-13 12:35:00
6:55 AM,37.4,28.4,70,30.20,10.0,NW,9.2,-,N/A,,Clear,320,2012-10-13 12:55:00
7:15 AM,39.2,28.4,65,30.20,10.0,NW,9.2,-,N/A,,Clear,310,2012-10-13 13:15:00
7:55 AM,42.8,30.2,61,30.20,10.0,NW,9.2,-,N/A,,Clear,320,2012-10-13 13:55:00
8:55 AM,50.0,28.4,43,30.21,10.0,NW,15.0,-,N/A,,Clear,320,2012-10-13 14:55:00
9:15 AM,53.6,26.6,35,30.22,10.0,NW,18.4,24.2,N/A,,Clear,310,2012-10-13 15:15:00
10:15 AM,57.2,19.4,23,30.22,10.0,NW,19.6,-,N/A,,Clear,320,2012-10-13 16:15:00
10:35 AM,57.2,19.4,23,30.22,10.0,NW,21.9,26.5,N/A,,Clear,310,2012-10-13 16:35:00
10:55 AM,59.0,19.4,22,30.22,9.0,WNW,18.4,27.6,N/A,,Clear,300,2012-10-13 16:55:00
11:35 AM,62.6,19.4,19,30.21,10.0,NW,15.0,-,N/A,,Clear,310,2012-10-13 17:35:00
11:55 AM,62.6,17.6,18,30.20,10.0,WNW,17.3,21.9,N/A,,Clear,290,2012-10-13 17:55:00
12:15 PM,62.6,17.6,18,30.20,10.0,WNW,15.0,23.0,N/A,,Clear,290,2012-10-13 18:15:00
12:35 PM,64.4,17.6,16,30.19,10.0,West,15.0,23.0,N/A,,Clear,280,2012-10-13 18:35:00
12:55 PM,64.4,17.6,16,30.18,10.0,WNW,15.0,25.3,N/A,,Clear,290,2012-10-13 18:55:00
1:15 PM,64.4,19.4,18,30.17,10.0,WNW,18.4,24.2,N/A,,Clear,290,2012-10-13 19:15:00
1:35 PM,66.2,21.2,18,30.17,10.0,WNW,16.1,23.0,N/A,,Clear,300,2012-10-13 19:35:00
1:55 PM,66.2,23.0,19,30.16,10.0,WNW,16.1,24.2,N/A,,Clear,300,2012-10-13 19:55:00
2:35 PM,68.0,24.8,20,30.14,10.0,WNW,17.3,23.0,N/A,,Clear,290,2012-10-13 20:35:00
2:55 PM,68.0,24.8,20,30.14,10.0,NW,13.8,21.9,N/A,,Clear,320,2012-10-13 20:55:00
3:15 PM,68.0,24.8,20,30.14,10.0,WNW,15.0,24.2,N/A,,Clear,290,2012-10-13 21:15:00
3:35 PM,69.8,24.8,18,30.14,10.0,WNW,12.7,21.9,N/A,,Clear,300,2012-10-13 21:35:00
3:55 PM,69.8,23.0,17,30.14,10.0,NW,17.3,26.5,N/A,,Clear,310,2012-10-13 21:55:00
4:15 PM,68.0,23.0,18,30.14,10.0,WNW,15.0,24.2,N/A,,Clear,300,2012-10-13 22:15:00
4:35 PM,68.0,24.8,20,30.13,10.0,WNW,16.1,25.3,N/A,,Clear,300,2012-10-13 22:35:00
4:55 PM,68.0,24.8,20,30.13,10.0,NW,15.0,23.0,N/A,,Clear,310,2012-10-13 22:55:00
5:15 PM,68.0,24.8,20,30.13,10.0,WNW,17.3,26.5,N/A,,Clear,300,2012-10-13 23:15:00
5:35 PM,68.0,26.6,21,30.13,10.0,WNW,18.4,23.0,N/A,,Clear,300,2012-10-13 23:35:00
5:55 PM,66.2,26.6,23,30.13,10.0,WNW,18.4,26.5,N/A,,Clear,290,2012-10-13 23:55:00
6:35 PM,64.4,26.6,24,30.13,10.0,NW,16.1,25.3,N/A,,Clear,310,2012-10-14 00:35:00
6:55 PM,62.6,26.6,26,30.13,10.0,NW,16.1,-,N/A,,Clear,310,2012-10-14 00:55:00
8:15 PM,57.2,26.6,31,30.17,10.0,NNW,11.5,-,N/A,,Clear,340,2012-10-14 02:15:00
8:35 PM,57.2,26.6,31,30.18,10.0,NNW,13.8,-,N/A,,Clear,340,2012-10-14 02:35:00
8:55 PM,59.0,26.6,29,30.19,10.0,North,11.5,-,N/A,,Clear,350,2012-10-14 02:55:00
9:15 PM,57.2,26.6,31,30.20,10.0,North,11.5,-,N/A,,Clear,360,2012-10-14 03:15:00
9:35 PM,55.4,26.6,33,30.20,10.0,North,8.1,-,N/A,,Clear,360,2012-10-14 03:35:00
10:35 PM,55.4,26.6,33,30.22,10.0,North,9.2,-,N/A,,Clear,350,2012-10-14 04:35:00
11:15 PM,51.8,24.8,35,30.24,10.0,NNW,8.1,-,N/A,,Clear,330,2012-10-14 05:15:00
11:35 PM,50.0,24.8,37,30.23,10.0,NNW,6.9,-,N/A,,Clear,340,2012-10-14 05:35:00
11:55 PM,46.4,24.8,43,30.23,10.0,NW,8.1,-,N/A,,Clear,310,2012-10-14 05:55:00